This is the latest recevied weather packets stored in our database for station/object HS5BOG-13. If no packets are shown the sender has not sent any weather packets the latest 10 day(s).
| Time | Temp. | Humidity | Pressure | Rain* | Wind** | Luminosity | Snow |
|---|---|---|---|---|---|---|---|
| 1777811529 | 33.33° C | 32% | 988 hPa | - | - | - | - |
| 1777810924 | 33.33° C | 32% | 987.8 hPa | - | - | - | - |
| 1777810318 | 33.33° C | 31% | 987.6 hPa | - | - | - | - |
| 1777809713 | 33.33° C | 31% | 987.5 hPa | - | - | - | - |
| 1777808502 | 33.33° C | 32% | 987.2 hPa | - | - | - | - |
| 1777806685 | 33.89° C | 31% | 987 hPa | - | - | - | - |
| 1777803657 | 33.89° C | 29% | 986.5 hPa | - | - | - | - |
| 1777803051 | 33.89° C | 31% | 986.4 hPa | - | - | - | - |
| 1777801840 | 33.89° C | 32% | 986.5 hPa | - | - | - | - |
| 1777800629 | 33.89° C | 27% | 986.5 hPa | - | - | - | - |
| 1777800023 | 33.89° C | 31% | 986.6 hPa | - | - | - | - |
| 1777799417 | 33.89° C | 27% | 986.8 hPa | - | - | - | - |
| 1777798812 | 33.89° C | 30% | 986.8 hPa | - | - | - | - |
| 1777798206 | 33.89° C | 31% | 987 hPa | - | - | - | - |
| 1777797601 | 33.89° C | 32% | 987.2 hPa | - | - | - | - |
| 1777796995 | 33.89° C | 34% | 987.3 hPa | - | - | - | - |
| 1777796390 | 33.89° C | 29% | 987.4 hPa | - | - | - | - |
| 1777795784 | 33.89° C | 31% | 987.6 hPa | - | - | - | - |
| 1777795178 | 33.89° C | 28% | 987.7 hPa | - | - | - | - |
| 1777794573 | 33.89° C | 31% | 987.8 hPa | - | - | - | - |
| 1777793967 | 33.89° C | 34% | 987.9 hPa | - | - | - | - |
| 1777793362 | 33.89° C | 31% | 988.3 hPa | - | - | - | - |
| 1777792756 | 33.89° C | 28% | 988.4 hPa | - | - | - | - |
| 1777792150 | 33.89° C | 33% | 988.8 hPa | - | - | - | - |
| 1777791545 | 33.33° C | 32% | 988.9 hPa | - | - | - | - |
* Rain since midnight (hover to see other rain measurements)
** Current wind speed in m/s (hover to see current wind gust speed)